This is the latest recevied weather packets stored in our database for station/object VE4GLS. If no packets are shown the sender has not sent any weather packets the latest 10 day(s).
| Time | Temp. | Humidity | Pressure | Rain* | Wind** | Luminosity | Snow |
|---|---|---|---|---|---|---|---|
| 1777394293 | 6.67° C | 51% | 1015.9 hPa | 0 mm | - | - | - |
| 1777393955 | 6.11° C | 51% | 1015.9 hPa | 0 mm | - | - | - |
| 1777393693 | 6.11° C | 50% | 1015.9 hPa | 0 mm | - | - | - |
| 1777393092 | 6.67° C | 51% | 1015.8 hPa | 0 mm | - | - | - |
| 1777393056 | 6.67° C | 52% | 1015.8 hPa | 0 mm | - | - | - |
| 1777392492 | 6.11° C | 51% | 1015.8 hPa | 0 mm | - | - | - |
| 1777392155 | 6.67° C | 50% | 1015.7 hPa | 0 mm | - | - | - |
| 1777391893 | 6.67° C | 51% | 1015.6 hPa | 0 mm | - | - | - |
| 1777391293 | 6.67° C | 54% | 1015.6 hPa | 0 mm | - | - | - |
| 1777391255 | 6.67° C | 55% | 1015.6 hPa | 0 mm | - | - | - |
| 1777390694 | 5.56° C | 58% | 1015.5 hPa | 0 mm | - | - | - |
| 1777390354 | 5.56° C | 56% | 1015.5 hPa | 0 mm | - | - | - |
| 1777389492 | 6.11° C | 56% | 1015.4 hPa | 0 mm | - | - | - |
| 1777389456 | 6.11° C | 58% | 1015.3 hPa | 0 mm | - | - | - |
| 1777388893 | 5.56° C | 57% | 1015.2 hPa | 0 mm | - | - | - |
| 1777388556 | 5.56° C | 58% | 1015.2 hPa | 0 mm | - | - | - |
| 1777388292 | 5.56° C | 59% | 1015.2 hPa | 0 mm | - | - | - |
| 1777387692 | 5.56° C | 55% | 1015.2 hPa | 0 mm | - | - | - |
| 1777387654 | 5.56° C | 55% | 1015.2 hPa | 0 mm | - | - | - |
| 1777387092 | 5.56° C | 58% | 1015.1 hPa | 0 mm | - | - | - |
| 1777386756 | 5.56° C | 59% | 1015 hPa | 0 mm | - | - | - |
| 1777386492 | 5° C | 60% | 1015.1 hPa | 0 mm | - | - | - |
| 1777385892 | 4.44° C | 62% | 1014.9 hPa | 0 mm | - | - | - |
| 1777385856 | 4.44° C | 63% | 1014.9 hPa | 0 mm | - | - | - |
| 1777385293 | 3.89° C | 64% | 1014.7 hPa | 0 mm | - | - | - |
* Rain latest hour (hover to see other rain measurements)
** Current wind speed in m/s (hover to see current wind gust speed)